Regional Weather Roundup
Issued by NWS Jackson, KY

Home | Current Version | Previous Version | Text Only | Print | Product List | Glossary Off
Versions: 1 2 3 4 5 6 7 8 9 10 11 12 13 14 15 16 17 18 19 20 21 22 23 24 25 26 27 28 29 30 31 32 33 34 35 36 37 38 39 40 41 42 43 44 45 46 47 48 49 50

000
ASUS43 KJKL 031710
RWRJKL

EAST KENTUCKY HOURLY WEATHER ROUNDUP
NATIONAL WEATHER SERVICE JACKSON KY
100 PM EDT THU SEP 03 2015

NOTE: "FAIR" INDICATES FEW OR NO CLOUDS BELOW 12,000 FEET WITH
NO SIGNIFICANT WEATHER AND/OR OBSTRUCTIONS TO VISIBILITY.

* THESE REPORTS ARE NOT UNDER NWS QUALITY CONTROL AND MAY NOT
  REPORT WEATHER SUCH AS PRECIPITATION AND FOG.

KYZ079-080-083-085-087-088-110-112-115-119-120-031800
...EASTERN KENTUCKY...

CITY           SKY/WX    TMP DP  RH WIND       PRES   REMARKS
JACKSON        PTSUNNY   83  68  60 CALM      30.07F
LONDON         MOSUNNY   87  64  46 N3        30.06F
SOMERSET*      SUNNY     86  63  45 CALM      30.06F
MONTICELLO*    MOSUNNY   88  68  51 CALM      30.08F HX  91
MIDDLESBORO*   SUNNY     85  69  58 E5        30.06F
HARLAN APT*      N/A     82  63  51 MISG      30.08F
HAZARD APT*    SUNNY     86  68  54 CALM      30.06F
BLACK MTN*       N/A     72  66  83 N2          N/A
PIKEVILLE APT* MOSUNNY   81  70  69 NW5       30.07F
BIG SANDY*     PTSUNNY   84  70  63 NE3       30.06F
MOREHEAD APT*  SUNNY     86  68  54 CALM      30.07F
$$

KYZ035-036-041-042-044-050-067-078-099-031800
...CENTRAL KENTUCKY...

CITY           SKY/WX    TMP DP  RH WIND       PRES   REMARKS
MT STERLING*   MOSUNNY   88  70  55 N3        30.06F HX  92
FLEMING/MASON* PTSUNNY   84  70  61 CALM      30.05F
DANVILLE*      SUNNY     88  66  48 CALM      30.06F HX  90
RICHMOND*      SUNNY     86  64  48 NE3       30.05F
LEXINGTON      SUNNY     89  66  46 NW8       30.05F HX  91
FRANKFORT      MOSUNNY   88  65  46 VRB6      30.03F HX  90
$$

KYZ091>093-OHZ055-061-077-WVZ005-015-034-035-042-031800
...SOUTHERN OHIO/WEST VIRGINIA...

CITY           SKY/WX    TMP DP  RH WIND       PRES   REMARKS
COVINGTON      MOSUNNY   88  67  49 VRB3      30.03F HX  91
COLUMBUS       MOSUNNY   85  70  60 VRB3      30.00F
DAYTON         MOSUNNY   88  68  51 NW9       30.03F HX  91
WILMINGTON     SUNNY     86  68  54 W7        30.03F
HUNTINGTON     MOSUNNY   86  69  56 VRB5      30.03F HX  90
CHARLESTON     PTSUNNY   80  69  69 CALM      30.04F
PINEVILLE*     MOSUNNY   83  71  67 MISG      30.13F
BECKLEY        PTSUNNY   73  66  78 N6        30.12F
BLUEFIELD      MOSUNNY   81  64  56 NW10      30.14F
$$

VAZ002-007-008-TNZ017-027-036-066-071-031800
...SOUTHWEST VIRGINIA/EAST TENNESSEE...

CITY           SKY/WX    TMP DP  RH WIND       PRES   REMARKS
WISE*          MOSUNNY   79  63  57 N9        30.15F
JONESVILLE*      N/A    N/A N/A N/A NW3       30.08F
ABINGDON*      MOSUNNY   83  63  50 NE6       30.09F
BRISTOL        PTSUNNY   84  66  54 VRB3      30.07F
KNOXVILLE      MOSUNNY   88  65  46 E8        30.03F HX  90
OAK RIDGE      SUNNY     88  66  48 E5        30.05F HX  90
CROSSVILLE     MOSUNNY   84  64  50 VRB3      30.10F
NASHVILLE      MOSUNNY   91  64  40 VRB3      30.02F HX  92
$$

...KEY TO REMARKS...
VSB - VISIBILITY IN MILES
WCI - WIND CHILL INDEX
HX  - HEAT INDEX

$$



USA.gov is the U.S. government's official web portal to all federal, state and local government web resources and services.